Voltar ao catálogo

STARLINK-34183

AtivoComunicaçõesVLEO
NORAD 64254·PAYLOAD·🇺🇸 United States

Lançado Jun 3, 2025 de Cape Canaveral Space Force Station

Loading…

Próximas Passagens (próximas 24 horas)

TLE

AtualizadoSource: CelesTrak SupGP

Época: Sep 15, 2026, 03:33 UTC

1 64254C 25119X   26258.14840278  .00035858  00000+0  12985-2 0  2589
2 64254  43.0024 317.4235 0001617 262.9473 350.9661 15.27567221    18

Acompanhe STARLINK-34183 em tempo real com AllMySat

Download on the App Store